SL-14 DEB, 47080

Orbit data source: Space-Track

SL-14 DEB, 47080 is space debris in LEO originally from a launch on Thu, 15 Aug 1991 UTC launched from the Plesetsk Missile And Space Complex (PKMTR). Debris objects in space refer to the collection of defunct objects orbiting the Earth. Examples of debris include non-operational satellites, rocket bodies, and fragments generated from explosions, collisions, or faulty payload assembly.

Loading next visibility...
Identifier
47080, 1991-056DE
Orbit
LEO
Country
Flag of CISCIS
Related business
Manufacturer
Unknown
Mission
Spacecraft
Bus & Motor
Unknown
Mass
Unknown
Launch date (UTC)
1991-08-15 (35 years ago)
Launch vehicle
Unknown
Launch site
Plesetsk Missile And Space Complex (PKMTR)
Object type
Payload
Rocket body
Debris
Shape & HBR
Unknown shape, 0.1 m
Radar Cross Section
Small (<0.1 m²)

Expand to show TLE details & history
Last TLE update: 2 days ago

TLE from 2 days ago
0 SL-14 DEB
1 47080U 91056DE  26205.23061471  .00013994  00000-0  69219-2 0  9994
2 47080  82.4992 288.9993 0132084  51.6305 309.6650 14.12784231287235
Epoch: 2026-07-24T05:32Z
TLE epoch observation values (Epoch: 2026-07-24T05:32:05.110Z)
Latitude
-0.00007°
Longitude
-95.98223°
Altitude
792.607 km
Speed
7.488 km/s
True Right ascension
19h 15m 59s
True Declination
0° 00' 00"
Sunlit
Object was in full shadow at epoch
Visualization orbit readout
Latitude
Unknown
Longitude
Unknown
Altitude
Unknown
Speed
Unknown
Apparent Right ascension
Unknown
Apparent Declination
Unknown
Sunlit
N/A
Visualization observer readout
Local Sidereal Time
16:15:25
Azimuth
Unknown
Elevation
Unknown
Doppler factor
Unknown
Orbital elements
Apogee altitude
942.406 km
Perigee altitude
751.541 km
Semi-major axis
7,225.11 km
Eccentricity
0.01321
Inclination
82.4992°
RAAN
288.9993°
Arg. of periapsis
51.6305°
True anomaly
308.48755°
Mean anomaly
309.665°
Eccentric anomaly
309.07751°
Mean motion
3.53408 °/min
Orbital period
101.87 mins
BSTAR
0.0069219
Loading maneuver chart data...
Computing Atmospheric mass density...
Loading historical data...
Loading historical data...
Loading historical data...
Loading historical data...
Loading historical data...
Loading historical data...
Loading historical data...

Documentation

Showing up to 5 results
|